Flag for Philippines Weather past 2 weeks in Olongapo, Philippines

Now
86 °F

Scattered clouds.


Feels Like: 95 °F
Forecast: 77 / 89 °F
Wind: 3 mph from North

Location: Subic Bay Weather Station

Current Time: Aug 5, 2015 at 5:26:15 PM

Latest Report: Aug 5, 2015 at 5:00 PM


Visibility: N/A

Pressure: 29.59 "Hg

Humidity: 70%

Dew point: 75 °F

Location of OlongapoLocation

Historic Weather in Olongapo — Graph

°F

Olongapo temperature yesterday

Maximum temperature yesterday: 90 °F (at 2:00 PM)
Minimum temperature yesterday: 77 °F (at 5:00 AM)
Average temperature yesterday: 83 °F

Past Weeks' High & Low Weather Summary

 TemperatureHumidityPressure
High91 °F (Jul 28, 2:00 PM)94% (Jul 22, 9:00 PM)29.98 "Hg (Jul 22, 9:00 PM)
Low72 °F (Jul 22, 9:00 PM)52% (Jul 30, 12:00 PM)29.59 "Hg (Aug 5, 3:00 PM)
Average82 °F78%29.82 "Hg
* Reported Jul 21 4:00 PM — Aug 5 4:00 PM, Olongapo, Weather by CustomWeather, © 2015

Note: Actual official high and low records may vary slightly from our data, if they occured in-between our weather recording intervals... More about our weather records

Advertising

Olongapo weather history for previous 24 hours

 ConditionsComfort  
Time TempWeatherWind HumidityBarometerVisibility
4:00 PM
Wed, Aug 5
88 °FPassing clouds.9 mph66%29.59 "HgN/A
3:00 PM88 °FPartly sunny.13 mph66%29.59 "HgN/A
2:00 PM90 °FPartly sunny.7 mph63%29.65 "HgN/A
1:00 PM90 °FPartly sunny.7 mph63%29.65 "HgN/A
12:00 PM88 °FPartly sunny.8 mph66%29.68 "HgN/A
11:00 AM88 °FPartly sunny.7 mph66%29.68 "HgN/A
10:00 AM86 °FPartly sunny.No wind62%29.71 "HgN/A
9:00 AM86 °FPartly sunny.No wind66%29.71 "HgN/A
8:00 AM81 °FPartly sunny.3 mph79%29.71 "HgN/A
7:00 AM81 °FPartly sunny.5 mph89%29.68 "HgN/A
6:00 AM79 °FBroken clouds.No wind94%29.68 "HgN/A
5:00 AM79 °FPassing clouds.No wind94%29.68 "HgN/A
4:00 AM79 °FPassing clouds.1 mph94%29.68 "HgN/A
3:00 AM79 °FPassing clouds.2 mph94%29.71 "HgN/A
2:00 AM77 °FPassing clouds.2 mph94%29.71 "HgN/A
1:00 AM77 °FPassing clouds.No wind94%29.71 "HgN/A
12:00 AM77 °FLight rain. Mostly cloudy.5 mph83%29.74 "HgN/A
11:00 PM
Tue, Aug 4
77 °FSprinkles. Passing clouds.3 mph83%29.74 "HgN/A
10:00 PM79 °FPassing clouds.5 mph84%29.74 "HgN/A
9:00 PM84 °FPassing clouds.1 mph74%29.74 "HgN/A
8:00 PM86 °FPassing clouds.5 mph70%29.68 "HgN/A
7:00 PM86 °FThundershowers. Passing clouds.5 mph70%29.68 "HgN/A
6:00 PM86 °FBroken clouds.7 mph75%29.65 "HgN/A
5:00 PM88 °FPartly sunny.9 mph66%29.65 "HgN/A
Weather by CustomWeather, © 2015

See weather overviewHow to use our weather pages